Main page
METAR-TAF:

METAR-TAF

Airports :

Sedalia Regional Airport

Sedalia, Missouri, United States

latitude: 38-42-44N, longitude: 093-10-28W, elevation: 909 ft

Current weather observation

The report was made 33 minutes ago, at 05:53 UTC
Calm wind
Temperature 73°F
Humidity 89%
Pressure 30.22 in. Hg
Visibility: 10 miles
Clear sky

METAR: KDMO 200553Z AUTO 00000KT 10SM CLR 23/21 A3022 RMK AO2 SLP225 T02330211 10294 20233 403170222 50004

Time: 01:26 (06:26 UTC)


TAF: missing

Weather observations and forecasts of more than 4000 airports (METAR and TAF reports).

The available stations are represented by yellow and red dots on the map.

Hover mouse over dot to see the name of the station.

Then click to see weather observations and forecasts.

To change the map : click on the green buttons with a black cross to zoom in, on the green button with a dash to zoom out, or on the green arrows for adjacent maps.


METAR-TAF: